User: anonymous   Login
Location: Unspecified
(0.0000°N, 0.0000°E)
Time: 12:33:25
(UTC+00:00)
Language:

Tiangong 1 - Orbit

View from above orbital plane
View from above orbital plane
View from above satellite
View from above satellite

Ground track
Ground track

The orbit data is extracted from the following two-line orbital elements,

1 37820U 11053A   17087.70296769 +.00024939 +00000-0 +16490-3 0  9999
2 37820 042.7608 331.4873 0019211 231.2103 225.6487 15.74783798315264
Epoch (UTC): 28 March 2017 16:52:16
Eccentricity: 0.0019211
inclination: 42.7608°
perigee height: 332 km
apogee height: 358 km
right ascension of ascending node: 331.4873°
argument of perigee: 231.2103°
revolutions per day: 15.74783798
mean anomaly at epoch: 225.6487°
orbit number at epoch: 31526

The dashed part of the orbit path shows where the satellite is in the earth's shadow,  

DLR